TimeCDT,TemperatureF,Dew PointF,Humidity,Sea Level PressureIn,VisibilityMPH,Wind Direction,Wind SpeedMPH,Gust SpeedMPH,PrecipitationIn,Events,Conditions,WindDirDegrees,DateUTC
12:53 AM,57.0,48.0,72,30.14,10.0,NE,3.5,-,N/A,,Scattered Clouds,40,2013-03-29 05:53:00
1:53 AM,57.0,48.0,72,30.14,10.0,NE,3.5,-,N/A,,Scattered Clouds,40,2013-03-29 06:53:00
2:53 AM,57.9,48.9,72,30.12,10.0,NE,3.5,-,N/A,,Overcast,40,2013-03-29 07:53:00
3:53 AM,57.9,48.9,72,30.12,10.0,ENE,4.6,-,N/A,,Overcast,60,2013-03-29 08:53:00
4:53 AM,57.9,48.9,72,30.11,10.0,NE,3.5,-,N/A,,Overcast,50,2013-03-29 09:53:00
5:53 AM,57.9,50.0,75,30.12,8.0,Calm,Calm,-,0.00,Rain,Light Rain,0,2013-03-29 10:53:00
6:53 AM,57.0,52.0,83,30.13,10.0,Calm,Calm,-,0.02,,Overcast,0,2013-03-29 11:53:00
7:02 AM,57.2,51.8,82,30.13,10.0,Calm,Calm,-,N/A,,Overcast,0,2013-03-29 12:02:00
7:32 AM,57.2,53.6,88,30.14,8.0,Calm,Calm,-,N/A,,Overcast,0,2013-03-29 12:32:00
7:53 AM,57.0,52.0,83,30.13,8.0,Calm,Calm,-,N/A,,Overcast,0,2013-03-29 12:53:00
8:53 AM,57.9,52.0,81,30.15,7.0,ENE,3.5,-,N/A,,Mostly Cloudy,60,2013-03-29 13:53:00
9:32 AM,57.2,53.6,88,30.18,7.0,ENE,9.2,-,N/A,,Overcast,60,2013-03-29 14:32:00
9:53 AM,59.0,53.1,81,30.18,8.0,ENE,6.9,-,N/A,,Overcast,70,2013-03-29 14:53:00
10:53 AM,60.1,53.1,78,30.17,10.0,East,8.1,-,N/A,,Overcast,80,2013-03-29 15:53:00
11:53 AM,62.1,53.1,72,30.17,10.0,ENE,11.5,-,N/A,,Overcast,70,2013-03-29 16:53:00
12:53 PM,60.1,54.0,80,30.18,10.0,East,9.2,-,N/A,,Overcast,80,2013-03-29 17:53:00
1:53 PM,61.0,54.0,78,30.16,10.0,ESE,8.1,-,N/A,,Overcast,110,2013-03-29 18:53:00
2:53 PM,62.1,54.0,75,30.14,10.0,ESE,6.9,-,N/A,,Overcast,110,2013-03-29 19:53:00
3:53 PM,62.1,54.0,75,30.12,10.0,East,8.1,-,N/A,,Overcast,90,2013-03-29 20:53:00
4:28 PM,62.6,55.4,77,30.12,10.0,ENE,6.9,-,N/A,,Overcast,60,2013-03-29 21:28:00
4:36 PM,62.6,55.4,77,30.12,10.0,ENE,6.9,-,N/A,,Overcast,60,2013-03-29 21:36:00
4:53 PM,62.1,55.0,78,30.12,10.0,NE,8.1,-,N/A,,Overcast,40,2013-03-29 21:53:00
5:02 PM,62.6,55.4,77,30.11,10.0,NE,9.2,-,N/A,,Overcast,50,2013-03-29 22:02:00
5:53 PM,61.0,55.9,83,30.11,10.0,NE,8.1,-,N/A,,Scattered Clouds,50,2013-03-29 22:53:00
6:53 PM,61.0,55.9,83,30.13,10.0,ENE,5.8,-,N/A,,Mostly Cloudy,60,2013-03-29 23:53:00
7:53 PM,59.0,55.0,87,30.12,10.0,ENE,3.5,-,N/A,,Clear,60,2013-03-30 00:53:00
8:53 PM,57.9,55.0,90,30.13,9.0,Calm,Calm,-,N/A,,Scattered Clouds,0,2013-03-30 01:53:00
9:53 PM,59.0,55.0,87,30.12,9.0,SE,4.6,-,0.00,Rain,Light Rain,130,2013-03-30 02:53:00
10:53 PM,57.9,55.0,90,30.13,6.0,East,6.9,-,0.00,,Partly Cloudy,80,2013-03-30 03:53:00
11:53 PM,57.0,55.0,93,30.15,3.0,Calm,Calm,-,0.06,Rain,Light Rain,0,2013-03-30 04:53:00